Time,TemperatureF,DewpointF,PressureIn,WindDirection,WindDirectionDegrees,WindSpeedMPH,WindSpeedGustMPH,Humidity,HourlyPrecipIn,Conditions,Clouds,dailyrainin,SoftwareType,DateUTC
2013-01-09 00:03:00,34.0,21.6,29.25,SSE,158,4.0,10.0,60,0.00,,,0.00,meteohub,2013-01-09 06:03:00,
2013-01-09 00:08:00,34.0,21.9,29.25,SSW,202,4.0,10.0,61,0.00,,,0.00,meteohub,2013-01-09 06:08:00,
2013-01-09 00:13:00,33.8,21.7,29.25,SSW,202,4.0,10.0,61,0.00,,,0.00,meteohub,2013-01-09 06:13:00,
2013-01-09 00:18:00,33.8,22.3,29.25,SSW,202,2.0,8.0,62,0.00,,,0.00,meteohub,2013-01-09 06:18:00,
2013-01-09 00:23:00,33.8,22.6,29.25,SSW,202,5.0,8.0,63,0.00,,,0.00,meteohub,2013-01-09 06:23:00,
2013-01-09 00:28:00,34.0,22.8,29.25,SSW,202,5.0,7.0,63,0.00,,,0.00,meteohub,2013-01-09 06:28:00,
2013-01-09 00:33:00,34.2,23.0,29.25,SSW,202,6.0,9.0,63,0.00,,,0.00,meteohub,2013-01-09 06:33:00,
2013-01-09 00:38:00,34.2,23.0,29.25,SW,225,5.0,9.0,63,0.00,,,0.00,meteohub,2013-01-09 06:38:00,
2013-01-09 00:43:00,34.3,23.0,29.25,SSW,202,4.0,9.0,63,0.00,,,0.00,meteohub,2013-01-09 06:43:00,
2013-01-09 00:48:00,34.3,23.0,29.25,South,180,2.0,10.0,63,0.00,,,0.00,meteohub,2013-01-09 06:48:00,
2013-01-09 00:53:00,34.3,23.0,29.25,SW,225,3.0,10.0,63,0.00,,,0.00,meteohub,2013-01-09 06:53:00,
2013-01-09 00:58:00,34.7,23.7,29.22,SSE,158,4.0,10.0,64,0.00,,,0.00,meteohub,2013-01-09 06:58:00,
2013-01-09 01:03:00,34.9,23.5,29.22,SSW,202,4.0,10.0,63,0.00,,,0.00,meteohub,2013-01-09 07:03:00,
2013-01-09 01:08:00,35.1,23.4,29.22,South,180,3.0,10.0,62,0.00,,,0.00,meteohub,2013-01-09 07:08:00,
2013-01-09 01:13:00,35.1,23.4,29.25,ESE,112,4.0,10.0,62,0.00,,,0.00,meteohub,2013-01-09 07:13:00,
2013-01-09 01:18:00,35.4,23.7,29.25,SSW,202,4.0,9.0,62,0.00,,,0.00,meteohub,2013-01-09 07:18:00,
2013-01-09 01:23:00,35.6,23.5,29.25,SSE,158,4.0,7.0,61,0.00,,,0.00,meteohub,2013-01-09 07:23:00,
2013-01-09 01:28:00,36.0,23.9,29.25,SW,225,8.0,8.0,61,0.00,,,0.00,meteohub,2013-01-09 07:28:00,
2013-01-09 01:33:00,36.1,23.7,29.25,SSE,158,8.0,11.0,60,0.00,,,0.00,meteohub,2013-01-09 07:33:00,
2013-01-09 01:38:00,36.5,23.9,29.25,SW,225,6.0,11.0,60,0.00,,,0.00,meteohub,2013-01-09 07:38:00,
2013-01-09 01:43:00,36.7,24.1,29.25,SSW,202,3.0,11.0,60,0.00,,,0.00,meteohub,2013-01-09 07:43:00,
2013-01-09 01:48:00,37.2,24.3,29.25,SW,225,8.0,10.0,59,0.00,,,0.00,meteohub,2013-01-09 07:48:00,
2013-01-09 01:53:00,37.6,23.7,29.25,SSW,202,6.0,11.0,57,0.00,,,0.00,meteohub,2013-01-09 07:53:00,
2013-01-09 01:58:00,37.6,23.7,29.25,SSE,158,4.0,11.0,57,0.00,,,0.00,meteohub,2013-01-09 07:58:00,
2013-01-09 02:03:00,37.8,23.9,29.25,SW,225,6.0,11.0,57,0.00,,,0.00,meteohub,2013-01-09 08:03:00,
2013-01-09 02:08:00,37.9,24.1,29.25,SW,225,4.0,8.0,57,0.00,,,0.00,meteohub,2013-01-09 08:08:00,
2013-01-09 02:13:00,38.3,24.1,29.25,South,180,6.0,10.0,56,0.00,,,0.00,meteohub,2013-01-09 08:13:00,
2013-01-09 02:18:00,38.5,23.7,29.25,SSW,202,5.0,10.0,55,0.00,,,0.00,meteohub,2013-01-09 08:18:00,
2013-01-09 02:23:00,39.0,24.3,29.25,WSW,248,5.0,13.0,55,0.00,,,0.00,meteohub,2013-01-09 08:23:00,
2013-01-09 02:28:00,39.7,24.1,29.25,WSW,248,10.0,13.0,53,0.00,,,0.00,meteohub,2013-01-09 08:28:00,
2013-01-09 02:33:00,40.3,24.1,29.25,SSW,202,10.0,16.0,52,0.00,,,0.00,meteohub,2013-01-09 08:33:00,
2013-01-09 02:38:00,40.6,24.4,29.25,SW,225,13.0,16.0,52,0.00,,,0.00,meteohub,2013-01-09 08:38:00,
2013-01-09 02:43:00,40.8,24.1,29.25,WSW,248,13.0,16.0,51,0.00,,,0.00,meteohub,2013-01-09 08:43:00,
2013-01-09 02:48:00,41.0,23.9,29.25,WNW,292,9.0,13.0,50,0.00,,,0.00,meteohub,2013-01-09 08:48:00,
2013-01-09 02:53:00,41.2,24.4,29.25,SSW,202,10.0,17.0,51,0.00,,,0.00,meteohub,2013-01-09 08:53:00,
2013-01-09 02:58:00,41.5,24.3,29.25,SW,225,10.0,17.0,50,0.00,,,0.00,meteohub,2013-01-09 08:58:00,
2013-01-09 03:02:00,41.5,24.8,29.25,SW,225,7.0,15.0,51,0.00,,,0.00,meteohub,2013-01-09 09:02:00,
2013-01-09 03:03:00,41.5,24.8,29.25,SW,225,7.0,15.0,51,0.00,,,0.00,meteohub,2013-01-09 09:03:00,
2013-01-09 03:12:00,41.4,24.6,29.25,WNW,292,19.0,19.0,51,0.00,,,0.00,meteohub,2013-01-09 09:12:00,
2013-01-09 03:17:00,41.5,24.8,29.25,WSW,248,11.0,19.0,51,0.00,,,0.00,meteohub,2013-01-09 09:17:00,
2013-01-09 03:22:00,41.5,24.3,29.25,WSW,248,13.0,19.0,50,0.00,,,0.00,meteohub,2013-01-09 09:22:00,
2013-01-09 03:27:00,41.5,24.3,29.25,WSW,248,4.0,19.0,50,0.00,,,0.00,meteohub,2013-01-09 09:27:00,
2013-01-09 03:31:00,41.4,24.1,29.25,SSW,202,10.0,17.0,50,0.00,,,0.00,meteohub,2013-01-09 09:31:00,
2013-01-09 03:36:00,41.4,23.7,29.25,SW,225,13.0,17.0,49,0.00,,,0.00,meteohub,2013-01-09 09:36:00,
2013-01-09 03:41:00,41.4,23.7,29.25,SW,225,6.0,19.0,49,0.00,,,0.00,meteohub,2013-01-09 09:41:00,
2013-01-09 03:46:00,41.2,23.5,29.25,SW,225,13.0,19.0,49,0.00,,,0.00,meteohub,2013-01-09 09:46:00,
2013-01-09 03:51:00,41.2,23.5,29.25,WSW,248,7.0,19.0,49,0.00,,,0.00,meteohub,2013-01-09 09:51:00,
2013-01-09 03:56:00,41.0,23.4,29.25,East,90,5.0,17.0,49,0.00,,,0.00,meteohub,2013-01-09 09:56:00,
2013-01-09 04:01:00,41.0,23.4,29.28,NNW,338,10.0,18.0,49,0.00,,,0.00,meteohub,2013-01-09 10:01:00,
2013-01-09 04:06:00,40.8,23.7,29.28,West,270,10.0,18.0,50,0.00,,,0.00,meteohub,2013-01-09 10:06:00,
2013-01-09 04:11:00,40.6,23.5,29.28,WNW,292,7.0,18.0,50,0.00,,,0.00,meteohub,2013-01-09 10:11:00,
2013-01-09 04:16:00,40.5,23.4,29.25,WNW,292,13.0,15.0,50,0.00,,,0.00,meteohub,2013-01-09 10:16:00,
2013-01-09 04:21:00,40.5,23.4,29.25,WSW,248,10.0,16.0,50,0.00,,,0.00,meteohub,2013-01-09 10:21:00,
2013-01-09 04:26:00,40.3,23.2,29.25,SSW,202,10.0,16.0,50,0.00,,,0.00,meteohub,2013-01-09 10:26:00,
2013-01-09 04:31:00,40.1,23.0,29.28,West,270,4.0,16.0,50,0.00,,,0.00,meteohub,2013-01-09 10:31:00,
2013-01-09 04:36:00,39.9,23.4,29.28,WNW,292,8.0,15.0,51,0.00,,,0.00,meteohub,2013-01-09 10:36:00,
2013-01-09 04:41:00,39.7,23.2,29.28,West,270,11.0,15.0,51,0.00,,,0.00,meteohub,2013-01-09 10:41:00,
2013-01-09 04:46:00,39.6,23.0,29.28,NNW,338,4.0,17.0,51,0.00,,,0.00,meteohub,2013-01-09 10:46:00,
2013-01-09 04:51:00,39.4,22.8,29.28,WSW,248,7.0,17.0,51,0.00,,,0.00,meteohub,2013-01-09 10:51:00,
2013-01-09 04:56:00,39.2,23.2,29.28,WNW,292,8.0,14.0,52,0.00,,,0.00,meteohub,2013-01-09 10:56:00,
2013-01-09 05:01:00,38.8,22.8,29.28,NNW,338,6.0,13.0,52,0.00,,,0.00,meteohub,2013-01-09 11:01:00,
2013-01-09 05:06:00,38.8,22.8,29.28,WNW,292,4.0,14.0,52,0.00,,,0.00,meteohub,2013-01-09 11:06:00,
2013-01-09 05:11:00,38.7,22.6,29.28,NNW,338,6.0,14.0,52,0.00,,,0.00,meteohub,2013-01-09 11:11:00,
2013-01-09 05:16:00,38.5,22.8,29.28,SW,225,3.0,14.0,53,0.00,,,0.00,meteohub,2013-01-09 11:16:00,
2013-01-09 05:21:00,38.3,22.6,29.28,WNW,292,3.0,13.0,53,0.00,,,0.00,meteohub,2013-01-09 11:21:00,
2013-01-09 05:26:00,38.1,22.5,29.28,SW,225,5.0,13.0,53,0.00,,,0.00,meteohub,2013-01-09 11:26:00,
2013-01-09 05:31:00,37.9,22.5,29.28,WNW,292,4.0,13.0,53,0.00,,,0.00,meteohub,2013-01-09 11:31:00,
2013-01-09 05:36:00,37.9,22.5,29.28,SW,225,5.0,13.0,53,0.00,,,0.00,meteohub,2013-01-09 11:36:00,
2013-01-09 05:42:00,37.8,22.6,29.28,West,270,10.0,13.0,54,0.00,,,0.00,meteohub,2013-01-09 11:42:00,
2013-01-09 05:47:00,37.6,22.5,29.31,WSW,248,11.0,13.0,54,0.00,,,0.00,meteohub,2013-01-09 11:47:00,
2013-01-09 05:52:00,37.6,22.5,29.31,West,270,6.0,13.0,54,0.00,,,0.00,meteohub,2013-01-09 11:52:00,
2013-01-09 05:57:00,37.4,22.3,29.31,WNW,292,10.0,15.0,54,0.00,,,0.00,meteohub,2013-01-09 11:57:00,
2013-01-09 06:02:00,37.2,22.6,29.31,WSW,248,6.0,15.0,55,0.00,,,0.00,meteohub,2013-01-09 12:02:00,
2013-01-09 06:07:00,37.0,22.5,29.31,SSW,202,5.0,15.0,55,0.00,,,0.00,meteohub,2013-01-09 12:07:00,
2013-01-09 06:12:00,36.9,22.3,29.31,WNW,292,5.0,14.0,55,0.00,,,0.00,meteohub,2013-01-09 12:12:00,
2013-01-09 06:17:00,36.7,22.5,29.34,WSW,248,8.0,10.0,56,0.00,,,0.00,meteohub,2013-01-09 12:17:00,
2013-01-09 06:22:00,36.7,22.5,29.34,NNW,338,3.0,10.0,56,0.00,,,0.00,meteohub,2013-01-09 12:22:00,
2013-01-09 06:27:00,36.7,22.5,29.34,NNW,338,3.0,9.0,56,0.00,,,0.00,meteohub,2013-01-09 12:27:00,
2013-01-09 06:32:00,36.5,22.3,29.34,WSW,248,5.0,11.0,56,0.00,,,0.00,meteohub,2013-01-09 12:32:00,
2013-01-09 06:37:00,36.5,22.3,29.34,SW,225,3.0,12.0,56,0.00,,,0.00,meteohub,2013-01-09 12:37:00,
2013-01-09 06:42:00,36.3,22.6,29.34,West,270,9.0,12.0,57,0.00,,,0.00,meteohub,2013-01-09 12:42:00,
2013-01-09 06:47:00,36.3,22.6,29.34,West,270,7.0,13.0,57,0.00,,,0.00,meteohub,2013-01-09 12:47:00,
2013-01-09 06:52:00,36.1,22.5,29.34,WNW,292,4.0,15.0,57,0.00,,,0.00,meteohub,2013-01-09 12:52:00,
2013-01-09 06:57:00,36.1,22.5,29.34,WNW,292,4.0,15.0,57,0.00,,,0.00,meteohub,2013-01-09 12:57:00,
2013-01-09 07:02:00,36.1,22.5,29.36,WNW,292,8.0,15.0,57,0.00,,,0.00,meteohub,2013-01-09 13:02:00,
2013-01-09 07:07:00,36.0,22.3,29.36,WSW,248,11.0,13.0,57,0.00,,,0.00,meteohub,2013-01-09 13:07:00,
2013-01-09 07:12:00,35.8,22.5,29.36,South,180,3.0,13.0,58,0.00,,,0.00,meteohub,2013-01-09 13:12:00,
2013-01-09 07:17:00,35.8,22.5,29.36,WNW,292,4.0,13.0,58,0.00,,,0.00,meteohub,2013-01-09 13:17:00,
2013-01-09 07:22:00,35.6,22.6,29.36,WSW,248,7.0,13.0,59,0.00,,,0.00,meteohub,2013-01-09 13:22:00,
2013-01-09 07:27:00,35.6,22.6,29.36,WSW,248,6.0,13.0,59,0.00,,,0.00,meteohub,2013-01-09 13:27:00,
2013-01-09 07:32:00,36.0,22.6,29.36,SW,225,9.0,11.0,58,0.00,,,0.00,meteohub,2013-01-09 13:32:00,
2013-01-09 07:37:00,36.3,22.1,29.36,SSW,202,3.0,11.0,56,0.00,,,0.00,meteohub,2013-01-09 13:37:00,
2013-01-09 07:42:00,36.1,21.9,29.36,WSW,248,4.0,11.0,56,0.00,,,0.00,meteohub,2013-01-09 13:42:00,
2013-01-09 07:47:00,35.6,21.9,29.36,WSW,248,8.0,11.0,57,0.00,,,0.00,meteohub,2013-01-09 13:47:00,
2013-01-09 07:52:00,35.8,22.1,29.36,WSW,248,6.0,11.0,57,0.00,,,0.00,meteohub,2013-01-09 13:52:00,
2013-01-09 07:57:00,36.5,22.3,29.36,ENE,68,4.0,11.0,56,0.00,,,0.00,meteohub,2013-01-09 13:57:00,
2013-01-09 08:02:00,36.7,22.1,29.36,WSW,248,3.0,11.0,55,0.00,,,0.00,meteohub,2013-01-09 14:02:00,
2013-01-09 08:07:00,36.1,21.2,29.36,WSW,248,8.0,10.0,54,0.00,,,0.00,meteohub,2013-01-09 14:07:00,
2013-01-09 08:12:00,36.7,22.1,29.36,WNW,292,6.0,10.0,55,0.00,,,0.00,meteohub,2013-01-09 14:12:00,
2013-01-09 08:17:00,36.5,21.6,29.36,WSW,248,5.0,10.0,54,0.00,,,0.00,meteohub,2013-01-09 14:17:00,
2013-01-09 08:22:00,36.7,21.6,29.36,West,270,6.0,10.0,54,0.00,,,0.00,meteohub,2013-01-09 14:22:00,
2013-01-09 08:27:00,36.9,21.4,29.36,WSW,248,6.0,9.0,53,0.00,,,0.00,meteohub,2013-01-09 14:27:00,
2013-01-09 08:32:00,36.9,21.4,29.36,WSW,248,4.0,10.0,53,0.00,,,0.00,meteohub,2013-01-09 14:32:00,
2013-01-09 08:37:00,37.4,21.9,29.36,WNW,292,5.0,10.0,53,0.00,,,0.00,meteohub,2013-01-09 14:37:00,
2013-01-09 08:42:00,37.9,21.6,29.36,WSW,248,5.0,10.0,51,0.00,,,0.00,meteohub,2013-01-09 14:42:00,
2013-01-09 08:47:00,38.7,21.7,29.36,WNW,292,4.0,10.0,50,0.00,,,0.00,meteohub,2013-01-09 14:47:00,
2013-01-09 08:52:00,38.7,20.7,29.36,NW,315,6.0,10.0,48,0.00,,,0.00,meteohub,2013-01-09 14:52:00,
2013-01-09 08:57:00,39.2,21.2,29.36,West,270,5.0,10.0,48,0.00,,,0.00,meteohub,2013-01-09 14:57:00,
2013-01-09 09:02:00,39.4,20.3,29.36,WSW,248,6.0,9.0,46,0.00,,,0.00,meteohub,2013-01-09 15:02:00,
2013-01-09 09:07:00,39.7,20.1,29.36,SSW,202,6.0,10.0,45,0.00,,,0.00,meteohub,2013-01-09 15:07:00,
2013-01-09 09:12:00,39.9,19.8,29.36,WSW,248,2.0,10.0,44,0.00,,,0.00,meteohub,2013-01-09 15:12:00,
2013-01-09 09:17:00,40.5,19.8,29.36,WSW,248,4.0,11.0,43,0.00,,,0.00,meteohub,2013-01-09 15:17:00,
2013-01-09 09:21:00,40.6,18.9,29.36,SSW,202,8.0,11.0,41,0.00,,,0.00,meteohub,2013-01-09 15:21:00,
2013-01-09 09:26:00,40.6,19.4,29.36,NW,315,4.0,11.0,42,0.00,,,0.00,meteohub,2013-01-09 15:26:00,
2013-01-09 09:31:00,40.6,19.4,29.36,SW,225,7.0,11.0,42,0.00,,,0.00,meteohub,2013-01-09 15:31:00,
2013-01-09 09:37:00,41.2,19.4,29.36,SW,225,8.0,11.0,41,0.00,,,0.00,meteohub,2013-01-09 15:37:00,
2013-01-09 09:42:00,41.9,19.9,29.36,WNW,292,6.0,9.0,41,0.00,,,0.00,meteohub,2013-01-09 15:42:00,
2013-01-09 09:47:00,42.6,20.1,29.36,WNW,292,4.0,11.0,40,0.00,,,0.00,meteohub,2013-01-09 15:47:00,
2013-01-09 09:52:00,42.8,19.6,29.36,WSW,248,2.0,11.0,39,0.00,,,0.00,meteohub,2013-01-09 15:52:00,
2013-01-09 09:57:00,42.4,19.2,29.36,WNW,292,6.0,11.0,39,0.00,,,0.00,meteohub,2013-01-09 15:57:00,
2013-01-09 10:02:00,43.0,19.8,29.39,WSW,248,6.0,13.0,39,0.00,,,0.00,meteohub,2013-01-09 16:02:00,
2013-01-09 10:07:00,42.4,18.7,29.39,WSW,248,8.0,13.0,38,0.00,,,0.00,meteohub,2013-01-09 16:07:00,
2013-01-09 10:12:00,43.0,19.2,29.39,SW,225,6.0,12.0,38,0.00,,,0.00,meteohub,2013-01-09 16:12:00,
2013-01-09 10:17:00,43.7,19.8,29.39,West,270,3.0,12.0,38,0.00,,,0.00,meteohub,2013-01-09 16:17:00,
2013-01-09 10:22:00,44.2,19.8,29.39,WSW,248,6.0,12.0,37,0.00,,,0.00,meteohub,2013-01-09 16:22:00,
2013-01-09 10:27:00,45.0,19.8,29.39,NNW,338,5.0,11.0,36,0.00,,,0.00,meteohub,2013-01-09 16:27:00,
2013-01-09 10:32:00,45.9,19.8,29.39,WNW,292,5.0,11.0,35,0.00,,,0.00,meteohub,2013-01-09 16:32:00,
2013-01-09 10:37:00,45.5,17.4,29.39,WNW,292,6.0,11.0,32,0.00,,,0.00,meteohub,2013-01-09 16:37:00,
2013-01-09 10:42:00,45.0,16.9,29.39,West,270,8.0,13.0,32,0.00,,,0.00,meteohub,2013-01-09 16:42:00,
2013-01-09 10:47:00,45.3,18.0,29.39,WSW,248,5.0,13.0,33,0.00,,,0.00,meteohub,2013-01-09 16:47:00,
2013-01-09 10:52:00,45.5,16.7,29.39,WSW,248,10.0,13.0,31,0.00,,,0.00,meteohub,2013-01-09 16:52:00,
2013-01-09 10:57:00,45.9,17.1,29.39,WSW,248,10.0,13.0,31,0.00,,,0.00,meteohub,2013-01-09 16:57:00,
2013-01-09 11:02:00,46.2,16.5,29.39,WSW,248,13.0,13.0,30,0.00,,,0.00,meteohub,2013-01-09 17:02:00,
2013-01-09 11:07:00,46.6,16.9,29.39,West,270,6.0,13.0,30,0.00,,,0.00,meteohub,2013-01-09 17:07:00,
2013-01-09 11:12:00,46.2,16.5,29.39,WNW,292,8.0,13.0,30,0.00,,,0.00,meteohub,2013-01-09 17:12:00,
2013-01-09 11:16:00,46.6,16.2,29.39,SE,135,6.0,18.0,29,0.00,,,0.00,meteohub,2013-01-09 17:16:00,
2013-01-09 11:21:00,46.8,16.3,29.39,WNW,292,6.0,18.0,29,0.00,,,0.00,meteohub,2013-01-09 17:21:00,
2013-01-09 11:26:00,46.9,16.3,29.39,WNW,292,5.0,17.0,29,0.00,,,0.00,meteohub,2013-01-09 17:26:00,
2013-01-09 11:31:00,47.1,16.5,29.39,SSW,202,6.0,17.0,29,0.00,,,0.00,meteohub,2013-01-09 17:31:00,
2013-01-09 11:36:00,47.8,16.3,29.39,WNW,292,7.0,17.0,28,0.00,,,0.00,meteohub,2013-01-09 17:36:00,
2013-01-09 11:41:00,48.2,15.8,29.39,SE,135,13.0,17.0,27,0.00,,,0.00,meteohub,2013-01-09 17:41:00,
2013-01-09 11:46:00,47.8,15.6,29.39,NNW,338,5.0,15.0,27,0.00,,,0.00,meteohub,2013-01-09 17:46:00,
2013-01-09 11:51:00,48.4,16.0,29.39,WSW,248,8.0,15.0,27,0.00,,,0.00,meteohub,2013-01-09 17:51:00,
2013-01-09 11:56:00,48.7,15.4,29.39,WSW,248,6.0,14.0,26,0.00,,,0.00,meteohub,2013-01-09 17:56:00,
2013-01-09 12:01:00,48.6,13.5,29.39,WNW,292,7.0,15.0,24,0.00,,,0.00,meteohub,2013-01-09 18:01:00,
2013-01-09 12:06:00,48.2,13.1,29.39,WNW,292,9.0,15.0,24,0.00,,,0.00,meteohub,2013-01-09 18:06:00,
2013-01-09 12:11:00,48.6,13.5,29.39,North,0,6.0,15.0,24,0.00,,,0.00,meteohub,2013-01-09 18:11:00,
2013-01-09 12:16:00,48.6,13.5,29.39,WSW,248,6.0,19.0,24,0.00,,,0.00,meteohub,2013-01-09 18:16:00,
2013-01-09 12:21:00,49.1,14.0,29.39,WSW,248,7.0,19.0,24,0.00,,,0.00,meteohub,2013-01-09 18:21:00,
2013-01-09 12:26:00,49.6,11.3,29.39,West,270,8.0,19.0,21,0.00,,,0.00,meteohub,2013-01-09 18:26:00,
2013-01-09 12:31:00,49.6,9.1,29.39,West,270,13.0,15.0,19,0.00,,,0.00,meteohub,2013-01-09 18:31:00,
2013-01-09 12:36:00,50.2,9.7,29.39,WNW,292,6.0,15.0,19,0.00,,,0.00,meteohub,2013-01-09 18:36:00,
2013-01-09 12:41:00,50.5,9.9,29.39,West,270,14.0,15.0,19,0.00,,,0.00,meteohub,2013-01-09 18:41:00,
2013-01-09 12:42:00,50.0,5.7,29.39,WSW,248,11.0,15.0,16,0.00,,,0.00,meteohub,2013-01-09 18:42:00,
2013-01-09 12:44:00,49.5,5.2,29.39,NW,315,19.0,19.0,16,0.00,,,0.00,meteohub,2013-01-09 18:44:00,
2013-01-09 12:45:00,49.5,5.2,29.39,WNW,292,13.0,15.0,16,0.00,,,0.00,meteohub,2013-01-09 18:45:00,
2013-01-09 12:46:00,49.6,5.4,29.39,WNW,292,9.0,19.0,16,0.00,,,0.00,meteohub,2013-01-09 18:46:00,
2013-01-09 12:48:00,49.3,5.2,29.39,SSW,202,9.0,19.0,16,0.00,,,0.00,meteohub,2013-01-09 18:48:00,
2013-01-09 12:49:00,49.3,5.2,29.39,NNW,338,6.0,19.0,16,0.00,,,0.00,meteohub,2013-01-09 18:49:00,
2013-01-09 12:54:00,50.0,5.7,29.39,WNW,292,6.0,19.0,16,0.00,,,0.00,meteohub,2013-01-09 18:54:00,
2013-01-09 12:59:00,50.2,5.9,29.39,West,270,11.0,19.0,16,0.00,,,0.00,meteohub,2013-01-09 18:59:00,
2013-01-09 13:04:00,50.7,3.4,29.39,WSW,248,6.0,18.0,14,0.00,,,0.00,meteohub,2013-01-09 19:04:00,
2013-01-09 13:09:00,51.1,3.6,29.39,West,270,17.0,18.0,14,0.00,,,0.00,meteohub,2013-01-09 19:09:00,
2013-01-09 13:14:00,51.6,4.1,29.39,WNW,292,8.0,18.0,14,0.00,,,0.00,meteohub,2013-01-09 19:14:00,
2013-01-09 13:19:00,51.3,3.7,29.39,WNW,292,11.0,17.0,14,0.00,,,0.00,meteohub,2013-01-09 19:19:00,
2013-01-09 13:24:00,50.9,3.6,29.39,WSW,248,9.0,17.0,14,0.00,,,0.00,meteohub,2013-01-09 19:24:00,
2013-01-09 13:29:00,50.7,3.4,29.39,NNW,338,17.0,17.0,14,0.00,,,0.00,meteohub,2013-01-09 19:29:00,
2013-01-09 13:34:00,50.2,3.0,29.39,WNW,292,13.0,17.0,14,0.00,,,0.00,meteohub,2013-01-09 19:34:00,
2013-01-09 13:39:00,50.5,3.2,29.39,WNW,292,10.0,17.0,14,0.00,,,0.00,meteohub,2013-01-09 19:39:00,
2013-01-09 13:44:00,50.5,3.2,29.39,WNW,292,15.0,18.0,14,0.00,,,0.00,meteohub,2013-01-09 19:44:00,
2013-01-09 13:49:00,50.7,3.4,29.39,WSW,248,6.0,18.0,14,0.00,,,0.00,meteohub,2013-01-09 19:49:00,
2013-01-09 13:54:00,51.1,3.6,29.39,WNW,292,5.0,18.0,14,0.00,,,0.00,meteohub,2013-01-09 19:54:00,
2013-01-09 13:59:00,51.1,3.6,29.39,West,270,10.0,17.0,14,0.00,,,0.00,meteohub,2013-01-09 19:59:00,
2013-01-09 14:04:00,51.3,3.7,29.39,NNW,338,6.0,21.0,14,0.00,,,0.00,meteohub,2013-01-09 20:04:00,
2013-01-09 14:09:00,51.4,3.9,29.39,WNW,292,15.0,21.0,14,0.00,,,0.00,meteohub,2013-01-09 20:09:00,
2013-01-09 14:14:00,51.6,4.1,29.42,WNW,292,11.0,17.0,14,0.00,,,0.00,meteohub,2013-01-09 20:14:00,
2013-01-09 14:19:00,52.2,2.8,29.42,WSW,248,9.0,19.0,13,0.00,,,0.00,meteohub,2013-01-09 20:19:00,
2013-01-09 14:24:00,52.0,2.8,29.42,WNW,292,10.0,19.0,13,0.00,,,0.00,meteohub,2013-01-09 20:24:00,
2013-01-09 14:29:00,51.4,3.9,29.45,West,270,13.0,15.0,14,0.00,,,0.00,meteohub,2013-01-09 20:29:00,
2013-01-09 14:34:00,51.4,3.9,29.45,WNW,292,11.0,22.0,14,0.00,,,0.00,meteohub,2013-01-09 20:34:00,
2013-01-09 14:39:00,51.1,3.6,29.45,NNW,338,11.0,26.0,14,0.00,,,0.00,meteohub,2013-01-09 20:39:00,
2013-01-09 14:44:00,51.3,3.7,29.45,WNW,292,15.0,26.0,14,0.00,,,0.00,meteohub,2013-01-09 20:44:00,
2013-01-09 14:49:00,50.7,3.4,29.45,WNW,292,13.0,26.0,14,0.00,,,0.00,meteohub,2013-01-09 20:49:00,
2013-01-09 14:54:00,50.7,3.4,29.45,WNW,292,11.0,25.0,14,0.00,,,0.00,meteohub,2013-01-09 20:54:00,
2013-01-09 14:59:00,50.5,3.2,29.45,NNW,338,6.0,25.0,14,0.00,,,0.00,meteohub,2013-01-09 20:59:00,
2013-01-09 15:04:00,50.9,3.6,29.45,WNW,292,7.0,25.0,14,0.00,,,0.00,meteohub,2013-01-09 21:04:00,
2013-01-09 15:09:00,51.3,3.7,29.45,WNW,292,12.0,24.0,14,0.00,,,0.00,meteohub,2013-01-09 21:09:00,
2013-01-09 15:14:00,51.3,3.7,29.45,NW,315,8.0,23.0,14,0.00,,,0.00,meteohub,2013-01-09 21:14:00,
2013-01-09 15:19:00,51.3,3.7,29.45,WNW,292,13.0,17.0,14,0.00,,,0.00,meteohub,2013-01-09 21:19:00,
2013-01-09 15:24:00,51.4,3.9,29.45,NW,315,9.0,14.0,14,0.00,,,0.00,meteohub,2013-01-09 21:24:00,
2013-01-09 15:29:00,51.3,3.7,29.48,WNW,292,11.0,14.0,14,0.00,,,0.00,meteohub,2013-01-09 21:29:00,
2013-01-09 15:34:00,50.9,3.6,29.48,WSW,248,12.0,13.0,14,0.00,,,0.00,meteohub,2013-01-09 21:34:00,
2013-01-09 15:39:00,50.4,3.0,29.48,WNW,292,18.0,18.0,14,0.00,,,0.00,meteohub,2013-01-09 21:39:00,
2013-01-09 15:44:00,50.0,2.8,29.48,West,270,17.0,17.0,14,0.00,,,0.00,meteohub,2013-01-09 21:44:00,
2013-01-09 15:49:00,49.8,2.7,29.48,WNW,292,6.0,21.0,14,0.00,,,0.00,meteohub,2013-01-09 21:49:00,
2013-01-09 15:54:00,49.5,2.3,29.48,West,270,9.0,21.0,14,0.00,,,0.00,meteohub,2013-01-09 21:54:00,
2013-01-09 15:59:00,49.1,2.1,29.48,North,0,10.0,19.0,14,0.00,,,0.00,meteohub,2013-01-09 21:59:00,
2013-01-09 16:04:00,48.7,1.8,29.48,WNW,292,6.0,18.0,14,0.00,,,0.00,meteohub,2013-01-09 22:04:00,
2013-01-09 16:09:00,48.4,1.6,29.48,WNW,292,5.0,17.0,14,0.00,,,0.00,meteohub,2013-01-09 22:09:00,
2013-01-09 16:14:00,47.7,0.9,29.48,WNW,292,8.0,17.0,14,0.00,,,0.00,meteohub,2013-01-09 22:14:00,
2013-01-09 16:19:00,46.9,0.3,29.48,NW,315,4.0,15.0,14,0.00,,,0.00,meteohub,2013-01-09 22:19:00,
2013-01-09 16:24:00,46.2,1.2,29.48,WSW,248,3.0,13.0,15,0.00,,,0.00,meteohub,2013-01-09 22:24:00,
2013-01-09 16:29:00,45.7,0.9,29.51,West,270,4.0,11.0,15,0.00,,,0.00,meteohub,2013-01-09 22:29:00,
2013-01-09 16:34:00,45.1,0.3,29.51,NNW,338,6.0,11.0,15,0.00,,,0.00,meteohub,2013-01-09 22:34:00,
2013-01-09 16:39:00,44.6,0.0,29.51,WNW,292,4.0,11.0,15,0.00,,,0.00,meteohub,2013-01-09 22:39:00,
2013-01-09 16:45:00,44.1,-0.6,29.51,NW,315,6.0,11.0,15,0.00,,,0.00,meteohub,2013-01-09 22:45:00,
2013-01-09 16:50:00,43.7,-0.8,29.51,WNW,292,5.0,10.0,15,0.00,,,0.00,meteohub,2013-01-09 22:50:00,
2013-01-09 16:55:00,43.5,-0.9,29.51,NW,315,5.0,10.0,15,0.00,,,0.00,meteohub,2013-01-09 22:55:00,
2013-01-09 17:00:00,43.0,-1.3,29.51,WNW,292,4.0,10.0,15,0.00,,,0.00,meteohub,2013-01-09 23:00:00,
2013-01-09 17:05:00,42.8,-1.5,29.51,WNW,292,3.0,9.0,15,0.00,,,0.00,meteohub,2013-01-09 23:05:00,
2013-01-09 17:10:00,42.6,-0.4,29.51,WNW,292,5.0,8.0,16,0.00,,,0.00,meteohub,2013-01-09 23:10:00,
2013-01-09 17:15:00,42.4,-0.4,29.54,WNW,292,8.0,8.0,16,0.00,,,0.00,meteohub,2013-01-09 23:15:00,
2013-01-09 17:20:00,42.3,-0.6,29.54,NNW,338,6.0,8.0,16,0.00,,,0.00,meteohub,2013-01-09 23:20:00,
2013-01-09 17:25:00,41.9,-0.9,29.54,NW,315,3.0,8.0,16,0.00,,,0.00,meteohub,2013-01-09 23:25:00,
2013-01-09 17:30:00,41.7,-1.1,29.54,NNW,338,6.0,8.0,16,0.00,,,0.00,meteohub,2013-01-09 23:30:00,
2013-01-09 17:35:00,41.5,-1.1,29.54,WNW,292,6.0,7.0,16,0.00,,,0.00,meteohub,2013-01-09 23:35:00,
2013-01-09 17:40:00,41.5,-1.1,29.54,NNW,338,9.0,9.0,16,0.00,,,0.00,meteohub,2013-01-09 23:40:00,
2013-01-09 17:45:00,41.5,-1.1,29.54,NNW,338,6.0,11.0,16,0.00,,,0.00,meteohub,2013-01-09 23:45:00,
2013-01-09 17:50:00,41.9,-0.9,29.54,WNW,292,9.0,14.0,16,0.00,,,0.00,meteohub,2013-01-09 23:50:00,
2013-01-09 17:55:00,42.1,-0.8,29.54,NNW,338,10.0,15.0,16,0.00,,,0.00,meteohub,2013-01-09 23:55:00,
2013-01-09 18:00:00,41.9,-0.9,29.54,NNW,338,11.0,15.0,16,0.00,,,0.00,meteohub,2013-01-10 00:00:00,
2013-01-09 18:05:00,41.7,-1.1,29.54,WNW,292,10.0,15.0,16,0.00,,,0.00,meteohub,2013-01-10 00:05:00,
2013-01-09 18:10:00,41.5,-1.1,29.54,NNW,338,8.0,13.0,16,0.00,,,0.00,meteohub,2013-01-10 00:10:00,
2013-01-09 18:15:00,41.5,-1.1,29.54,NNW,338,10.0,13.0,16,0.00,,,0.00,meteohub,2013-01-10 00:15:00,
2013-01-09 18:20:00,41.2,-1.5,29.54,NNW,338,6.0,15.0,16,0.00,,,0.00,meteohub,2013-01-10 00:20:00,
2013-01-09 18:25:00,40.6,-2.0,29.54,NNW,338,7.0,15.0,16,0.00,,,0.00,meteohub,2013-01-10 00:25:00,
2013-01-09 18:30:00,40.5,-2.0,29.54,NNW,338,6.0,13.0,16,0.00,,,0.00,meteohub,2013-01-10 00:30:00,
2013-01-09 18:35:00,40.3,-2.2,29.54,NNW,338,7.0,13.0,16,0.00,,,0.00,meteohub,2013-01-10 00:35:00,
2013-01-09 18:40:00,39.9,-2.6,29.54,WNW,292,6.0,11.0,16,0.00,,,0.00,meteohub,2013-01-10 00:40:00,
2013-01-09 18:45:00,39.9,-2.6,29.57,NNW,338,6.0,10.0,16,0.00,,,0.00,meteohub,2013-01-10 00:45:00,
2013-01-09 18:50:00,39.9,-2.6,29.57,WNW,292,11.0,11.0,16,0.00,,,0.00,meteohub,2013-01-10 00:50:00,
2013-01-09 18:55:00,39.9,-2.6,29.57,NNW,338,6.0,11.0,16,0.00,,,0.00,meteohub,2013-01-10 00:55:00,
2013-01-09 19:00:00,39.7,-2.7,29.54,WNW,292,8.0,11.0,16,0.00,,,0.00,meteohub,2013-01-10 01:00:00,
2013-01-09 19:05:00,39.7,-2.7,29.54,NNW,338,4.0,12.0,16,0.00,,,0.00,meteohub,2013-01-10 01:05:00,
2013-01-09 19:10:00,39.7,-2.7,29.54,NNW,338,6.0,15.0,16,0.00,,,0.00,meteohub,2013-01-10 01:10:00,
2013-01-09 19:15:00,39.4,-2.9,29.57,NNW,338,6.0,15.0,16,0.00,,,0.00,meteohub,2013-01-10 01:15:00,
2013-01-09 19:20:00,39.4,-2.9,29.57,NNW,338,6.0,15.0,16,0.00,,,0.00,meteohub,2013-01-10 01:20:00,
2013-01-09 19:25:00,39.2,-3.1,29.57,NNW,338,7.0,12.0,16,0.00,,,0.00,meteohub,2013-01-10 01:25:00,
2013-01-09 19:30:00,39.0,-3.3,29.54,NNW,338,8.0,12.0,16,0.00,,,0.00,meteohub,2013-01-10 01:30:00,
2013-01-09 19:35:00,38.7,-3.5,29.54,NW,315,5.0,11.0,16,0.00,,,0.00,meteohub,2013-01-10 01:35:00,
2013-01-09 19:40:00,38.5,-3.6,29.54,NNW,338,7.0,11.0,16,0.00,,,0.00,meteohub,2013-01-10 01:40:00,
2013-01-09 19:45:00,38.3,-3.8,29.54,NW,315,8.0,9.0,16,0.00,,,0.00,meteohub,2013-01-10 01:45:00,
2013-01-09 19:50:00,38.1,-0.4,29.54,NNW,338,8.0,10.0,19,0.00,,,0.00,meteohub,2013-01-10 01:50:00,
2013-01-09 19:55:00,37.9,-0.6,29.54,NNW,338,9.0,10.0,19,0.00,,,0.00,meteohub,2013-01-10 01:55:00,
2013-01-09 20:00:00,37.6,-0.8,29.57,NNW,338,6.0,9.0,19,0.00,,,0.00,meteohub,2013-01-10 02:00:00,
2013-01-09 20:05:00,37.4,-0.9,29.57,NNW,338,6.0,9.0,19,0.00,,,0.00,meteohub,2013-01-10 02:05:00,
2013-01-09 20:10:00,37.2,1.9,29.57,WNW,292,3.0,9.0,22,0.00,,,0.00,meteohub,2013-01-10 02:10:00,
2013-01-09 20:15:00,37.0,1.8,29.57,NNW,338,4.0,9.0,22,0.00,,,0.00,meteohub,2013-01-10 02:15:00,
2013-01-09 20:20:00,37.0,3.7,29.57,NNW,338,6.0,9.0,24,0.00,,,0.00,meteohub,2013-01-10 02:20:00,
2013-01-09 20:25:00,36.9,3.6,29.57,NW,315,5.0,9.0,24,0.00,,,0.00,meteohub,2013-01-10 02:25:00,
2013-01-09 20:30:00,36.7,5.9,29.57,WNW,292,6.0,9.0,27,0.00,,,0.00,meteohub,2013-01-10 02:30:00,
2013-01-09 20:35:00,36.3,5.5,29.57,WNW,292,6.0,7.0,27,0.00,,,0.00,meteohub,2013-01-10 02:35:00,
2013-01-09 20:40:00,36.1,7.0,29.57,NNW,338,4.0,8.0,29,0.00,,,0.00,meteohub,2013-01-10 02:40:00,
2013-01-09 20:45:00,36.0,7.7,29.57,NNW,338,3.0,8.0,30,0.00,,,0.00,meteohub,2013-01-10 02:45:00,
2013-01-09 20:50:00,35.8,7.5,29.57,WSW,248,4.0,8.0,30,0.00,,,0.00,meteohub,2013-01-10 02:50:00,
2013-01-09 20:55:00,35.6,7.3,29.57,West,270,4.0,6.0,30,0.00,,,0.00,meteohub,2013-01-10 02:55:00,
2013-01-09 21:00:00,35.2,7.7,29.60,West,270,2.0,6.0,31,0.00,,,0.00,meteohub,2013-01-10 03:00:00,
2013-01-09 21:05:00,34.9,7.3,29.60,WNW,292,3.0,6.0,31,0.00,,,0.00,meteohub,2013-01-10 03:05:00,
2013-01-09 21:10:00,34.5,7.2,29.60,WNW,292,2.0,4.0,31,0.00,,,0.00,meteohub,2013-01-10 03:10:00,
2013-01-09 21:15:00,34.2,7.5,29.60,WNW,292,3.0,4.0,32,0.00,,,0.00,meteohub,2013-01-10 03:15:00,
2013-01-09 21:20:00,33.8,7.2,29.60,WNW,292,2.0,4.0,32,0.00,,,0.00,meteohub,2013-01-10 03:20:00,
2013-01-09 21:25:00,33.3,7.3,29.60,WNW,292,2.0,4.0,33,0.00,,,0.00,meteohub,2013-01-10 03:25:00,
2013-01-09 21:30:00,32.9,7.0,29.60,WNW,292,2.0,3.0,33,0.00,,,0.00,meteohub,2013-01-10 03:30:00,
2013-01-09 21:35:00,32.7,8.2,29.60,WNW,292,3.0,3.0,35,0.00,,,0.00,meteohub,2013-01-10 03:35:00,
2013-01-09 21:40:00,32.4,8.4,29.60,West,270,2.0,3.0,36,0.00,,,0.00,meteohub,2013-01-10 03:40:00,
2013-01-09 21:45:00,32.0,8.1,29.60,WSW,248,3.0,3.0,36,0.00,,,0.00,meteohub,2013-01-10 03:45:00,
2013-01-09 21:50:00,31.3,7.5,29.60,SW,225,0.0,3.0,36,0.00,,,0.00,meteohub,2013-01-10 03:50:00,
2013-01-09 21:55:00,30.9,7.2,29.60,SW,225,0.0,3.0,36,0.00,,,0.00,meteohub,2013-01-10 03:55:00,
2013-01-09 22:00:00,30.6,6.8,29.60,WNW,292,2.0,3.0,36,0.00,,,0.00,meteohub,2013-01-10 04:00:00,
2013-01-09 22:05:00,30.2,8.8,29.60,WNW,292,2.0,3.0,40,0.00,,,0.00,meteohub,2013-01-10 04:05:00,
2013-01-09 22:10:00,30.4,9.5,29.60,NNW,338,0.0,3.0,41,0.00,,,0.00,meteohub,2013-01-10 04:10:00,
2013-01-09 22:15:00,29.8,9.0,29.60,NNW,338,0.0,3.0,41,0.00,,,0.00,meteohub,2013-01-10 04:15:00,
2013-01-09 22:20:00,29.5,8.8,29.60,NNW,338,0.0,2.0,41,0.00,,,0.00,meteohub,2013-01-10 04:20:00,
2013-01-09 22:25:00,29.5,9.3,29.60,NNW,338,0.0,0.0,42,0.00,,,0.00,meteohub,2013-01-10 04:25:00,
2013-01-09 22:30:00,29.1,9.0,29.63,NNW,338,0.0,0.0,42,0.00,,,0.00,meteohub,2013-01-10 04:30:00,
2013-01-09 22:35:00,28.2,7.5,29.63,NNW,338,0.0,0.0,41,0.00,,,0.00,meteohub,2013-01-10 04:35:00,
2013-01-09 22:40:00,28.2,8.1,29.63,SSW,202,0.0,0.0,42,0.00,,,0.00,meteohub,2013-01-10 04:40:00,
2013-01-09 22:45:00,27.9,7.7,29.63,SSW,202,0.0,0.0,42,0.00,,,0.00,meteohub,2013-01-10 04:45:00,
2013-01-09 22:50:00,27.7,7.7,29.63,SSW,202,0.0,0.0,42,0.00,,,0.00,meteohub,2013-01-10 04:50:00,
2013-01-09 22:55:00,27.0,7.0,29.63,SSW,202,0.0,0.0,42,0.00,,,0.00,meteohub,2013-01-10 04:55:00,
2013-01-09 23:00:00,26.2,7.9,29.63,SSW,202,0.0,0.0,45,0.00,,,0.00,meteohub,2013-01-10 05:00:00,
2013-01-09 23:01:00,26.1,8.1,29.63,SSW,202,0.0,0.0,46,0.00,,,0.00,meteohub,2013-01-10 05:01:00,
2013-01-09 23:03:00,26.2,10.2,29.63,WNW,292,0.0,0.0,50,0.00,,,0.00,meteohub,2013-01-10 05:03:00,
2013-01-09 23:08:00,26.6,8.2,29.63,NNW,338,0.0,0.0,45,0.00,,,0.00,meteohub,2013-01-10 05:08:00,
2013-01-09 23:13:00,26.8,7.9,29.63,NNW,338,0.0,0.0,44,0.00,,,0.00,meteohub,2013-01-10 05:13:00,
2013-01-09 23:18:00,25.7,7.3,29.63,NNW,338,0.0,0.0,45,0.00,,,0.00,meteohub,2013-01-10 05:18:00,
2013-01-09 23:23:00,25.5,8.1,29.63,NNW,338,0.0,0.0,47,0.00,,,0.00,meteohub,2013-01-10 05:23:00,
2013-01-09 23:28:00,25.2,6.8,29.63,NNW,338,0.0,0.0,45,0.00,,,0.00,meteohub,2013-01-10 05:28:00,
2013-01-09 23:33:00,25.0,7.2,29.63,WNW,292,1.0,0.0,46,0.00,,,0.00,meteohub,2013-01-10 05:33:00,
2013-01-09 23:38:00,25.5,8.1,29.63,WSW,248,0.0,2.0,47,0.00,,,0.00,meteohub,2013-01-10 05:38:00,
2013-01-09 23:44:00,25.5,7.7,29.63,WSW,248,0.0,2.0,46,0.00,,,0.00,meteohub,2013-01-10 05:44:00,
2013-01-09 23:49:00,25.5,7.7,29.63,WSW,248,0.0,2.0,46,0.00,,,0.00,meteohub,2013-01-10 05:49:00,
2013-01-09 23:54:00,25.9,8.4,29.63,WSW,248,0.0,1.0,47,0.00,,,0.00,meteohub,2013-01-10 05:54:00,
2013-01-09 23:59:00,26.4,9.5,29.66,ESE,112,2.0,2.0,48,0.00,,,0.00,meteohub,2013-01-10 05:59:00,